Weather History for KUKF - July, 2012

Change the Weather History Date:

Friday, July 20, 2012

  Actual Average Record
Temperature  
Mean Temperature 74 °F -  
Max Temperature 82 °F 89 °F 98 °F (1977)
Min Temperature 66 °F 64 °F 30 °F (2005)
Cooling Degree Days 9    
Growing Degree Days 24 (Base 50)    
Moisture  
Dew Point 69 °F    
Average Humidity 88    
Maximum Humidity 100    
Minimum Humidity 62    
Precipitation  
Precipitation 0.01 in - - ()
Sea Level Pressure  
Sea Level Pressure 30.02 in    
Wind  
Wind Speed 2 mph (West)    
Max Wind Speed 7 mph    
Max Gust Speed 15 mph    
Visibility 8 miles    
Events Fog , Rain    
Averages and records for this station are not official NWS values.
T = Trace of Precipitation, MM = Missing Value Source: NWS Daily Summary

Daily Weather History Graph

Daily Weather History Graph

Search for Another Location

Airport or City:

Trip Planner

Search our weather history database for the weather conditions in past years. The results will help you decide how hot, cold, wet, or windy it might be!

Date:

Astronomy

Jul. 20, 2012 Rise Set
Actual Time 6:22 AM EDT 8:38 PM EDT
Civil Twilight 5:53 AM EDT 9:07 PM EDT
Nautical Twilight 5:17 AM EDT 9:43 PM EDT
Astronomical Twilight 4:38 AM EDT 10:22 PM EDT
Moon 7:53 AM EDT (7/20) 9:23 PM EDT (7/20)
Length of Visible Light 15h 14m
Length of Day
14h 16m
New Moon, 2% of the Moon is Illuminated
Jul 20
New Moon
Jul 26
First Quarter
Aug 1
Full
Aug 9
Last Quarter
Aug 17
New

Hourly Weather History & Observations

Time (EDT) Temp. Heat Index Dew Point Humidity Pressure Visibility Wind Dir Wind Speed Gust Speed Precip Events Conditions
12:15 AM 68.0 °F - 68.0 °F 100% 30.04 in 7.0 mi West 3.5 mph - N/A   Clear
12:35 AM 68.0 °F - 68.0 °F 100% 30.05 in 7.0 mi West 3.5 mph - N/A   Clear
12:55 AM 68.0 °F - 68.0 °F 100% 30.05 in 7.0 mi West 3.5 mph - 0.01 in   Clear
1:15 AM 68.0 °F - 68.0 °F 100% 30.04 in 7.0 mi West 3.5 mph - N/A   Clear
1:35 AM 68.0 °F - 68.0 °F 100% 30.03 in 7.0 mi WSW 6.9 mph - N/A   Clear
1:55 AM 68.0 °F - 68.0 °F 100% 30.03 in 7.0 mi SW 3.5 mph - N/A   Clear
2:15 AM 68.0 °F - 68.0 °F 100% 30.02 in 10.0 mi Calm Calm - N/A   Clear
2:35 AM 68.0 °F - 68.0 °F 100% 30.00 in 10.0 mi WSW 4.6 mph - N/A   Clear
2:55 AM 68.0 °F - 68.0 °F 100% 30.00 in 7.0 mi Calm Calm - N/A   Clear
3:15 AM 68.0 °F - 68.0 °F 100% 30.00 in 7.0 mi Calm Calm - N/A   Mostly Cloudy
3:35 AM 68.0 °F - 68.0 °F 100% 29.99 in 4.0 mi SSW 3.5 mph - N/A   Overcast
3:55 AM 68.0 °F - 68.0 °F 100% 29.99 in 5.0 mi Calm Calm - N/A   Overcast
4:15 AM 68.0 °F - 66.2 °F 94% 29.98 in 4.0 mi Calm Calm - N/A   Overcast
4:35 AM 66.2 °F - 66.2 °F 100% 29.98 in 4.0 mi Calm Calm - N/A   Mostly Cloudy
4:55 AM 66.2 °F - 66.2 °F 100% 29.98 in 5.0 mi Calm Calm - N/A   Clear
5:15 AM 66.2 °F - 66.2 °F 100% 29.99 in 10.0 mi Calm Calm - N/A   Clear
5:35 AM 66.2 °F - 66.2 °F 100% 29.99 in 7.0 mi Calm Calm - N/A   Clear
5:55 AM 66.2 °F - 66.2 °F 100% 30.00 in 4.0 mi Calm Calm - N/A   Mostly Cloudy
6:15 AM 66.2 °F - 66.2 °F 100% 30.00 in 0.8 mi Calm Calm - N/A   Overcast
6:35 AM 66.2 °F - 66.2 °F 100% 30.01 in 0.2 mi Calm Calm - N/A Fog Fog
6:55 AM 66.2 °F - 66.2 °F 100% 30.02 in 0.2 mi NNW 3.5 mph - N/A Fog Fog
7:15 AM 66.2 °F - 66.2 °F 100% 30.02 in 0.2 mi North 4.6 mph - N/A Fog Fog
7:35 AM 66.2 °F - 66.2 °F 100% 30.03 in 1.2 mi Calm Calm - N/A   Overcast
7:55 AM 68.0 °F - 68.0 °F 100% 30.03 in 10.0 mi Calm Calm - N/A   Mostly Cloudy
8:15 AM 68.0 °F - 68.0 °F 100% 30.04 in 7.0 mi Calm Calm - N/A   Mostly Cloudy
8:35 AM 68.0 °F - 68.0 °F 100% 30.04 in 10.0 mi Calm Calm - N/A   Mostly Cloudy
8:55 AM 68.0 °F - 68.0 °F 100% 30.05 in 7.0 mi WSW 3.5 mph - N/A   Mostly Cloudy
9:15 AM 69.8 °F - 68.0 °F 94% 30.05 in 10.0 mi SSW 3.5 mph - N/A   Overcast
9:35 AM 71.6 °F - 68.0 °F 88% 30.06 in 10.0 mi Calm Calm - N/A   Mostly Cloudy
9:55 AM 73.4 °F - 69.8 °F 88% 30.06 in 10.0 mi Calm Calm - N/A   Scattered Clouds
10:15 AM 73.4 °F - 68.0 °F 83% 30.05 in 10.0 mi Calm Calm - N/A   Clear
10:35 AM 75.2 °F - 68.0 °F 78% 30.04 in 10.0 mi East 3.5 mph - N/A   Scattered Clouds
10:55 AM 77.0 °F - 69.8 °F 78% 30.04 in 10.0 mi ESE 3.5 mph - N/A   Clear
11:15 AM 77.0 °F - 69.8 °F 78% 30.05 in 10.0 mi Calm Calm - N/A   Scattered Clouds
11:35 AM 77.0 °F - 69.8 °F 78% 30.05 in 10.0 mi Calm Calm - N/A   Overcast
11:55 AM 77.0 °F - 69.8 °F 78% 30.05 in 10.0 mi Calm Calm - N/A   Overcast
12:15 PM 77.0 °F - 69.8 °F 78% 30.05 in 10.0 mi Calm Calm - N/A   Overcast
12:35 PM 78.8 °F - 71.6 °F 78% 30.05 in 10.0 mi SW 4.6 mph - N/A   Overcast
12:55 PM 80.6 °F 84.6 °F 71.6 °F 74% 30.05 in 10.0 mi Calm Calm - N/A   Mostly Cloudy
1:15 PM 80.6 °F 83.9 °F 69.8 °F 70% 30.05 in 10.0 mi WSW 3.5 mph - N/A   Scattered Clouds
1:35 PM 80.6 °F 83.9 °F 69.8 °F 70% 30.05 in 10.0 mi Calm Calm - N/A   Scattered Clouds
1:55 PM 80.6 °F 83.9 °F 69.8 °F 70% 30.04 in 10.0 mi WSW 5.8 mph - N/A   Scattered Clouds
2:15 PM 82.4 °F 86.3 °F 69.8 °F 66% 30.04 in 10.0 mi WSW 5.8 mph - N/A   Scattered Clouds
2:35 PM 82.4 °F 85.4 °F 68.0 °F 62% 30.03 in 10.0 mi Calm Calm - N/A   Mostly Cloudy
2:55 PM 82.4 °F 85.4 °F 68.0 °F 62% 30.02 in 10.0 mi Calm Calm - N/A   Scattered Clouds
3:15 PM 82.4 °F 86.3 °F 69.8 °F 66% 30.01 in 10.0 mi Calm Calm - N/A   Clear
3:35 PM 82.4 °F 85.4 °F 68.0 °F 62% 30.00 in 10.0 mi Calm Calm - N/A   Clear
3:55 PM 82.4 °F 86.3 °F 69.8 °F 66% 30.00 in 10.0 mi Calm Calm - N/A   Clear
4:15 PM 80.6 °F 83.9 °F 69.8 °F 70% 30.00 in 10.0 mi Calm Calm - N/A   Clear
4:35 PM 80.6 °F 84.6 °F 71.6 °F 74% 30.00 in 10.0 mi Calm Calm - N/A   Clear
4:55 PM 80.6 °F 84.6 °F 71.6 °F 74% 29.99 in 10.0 mi Calm Calm - N/A   Scattered Clouds
5:15 PM 80.6 °F 84.6 °F 71.6 °F 74% 30.00 in 10.0 mi Calm Calm - N/A   Scattered Clouds
5:35 PM 78.8 °F - 71.6 °F 78% 30.00 in 10.0 mi NE 3.5 mph - N/A   Mostly Cloudy
5:55 PM 75.2 °F - 69.8 °F 83% 30.02 in 10.0 mi NNE 3.5 mph - N/A   Overcast
6:15 PM 71.6 °F - 68.0 °F 88% 30.01 in 10.0 mi North 6.9 mph 15.0 mph N/A Rain Light Rain
6:35 PM 73.4 °F - 69.8 °F 88% 30.00 in 10.0 mi North 3.5 mph - N/A   Mostly Cloudy
6:55 PM 73.4 °F - 69.8 °F 88% 30.01 in 10.0 mi Calm Calm - N/A   Scattered Clouds
7:15 PM 75.2 °F - 69.8 °F 83% 30.01 in 10.0 mi Calm Calm - N/A   Scattered Clouds
7:35 PM 77.0 °F - 69.8 °F 78% 30.01 in 10.0 mi Calm Calm - N/A   Mostly Cloudy
7:55 PM 77.0 °F - 69.8 °F 78% 30.02 in 10.0 mi Calm Calm - N/A   Clear
8:15 PM 75.2 °F - 71.6 °F 89% 30.02 in 10.0 mi Calm Calm - N/A   Mostly Cloudy
8:35 PM 73.4 °F - 71.6 °F 94% 30.03 in 10.0 mi Calm Calm - N/A   Mostly Cloudy
8:55 PM 73.4 °F - 71.6 °F 94% 30.02 in 10.0 mi Calm Calm - N/A   Scattered Clouds
9:15 PM 73.4 °F - 71.6 °F 94% 30.03 in 10.0 mi North 3.5 mph - N/A   Scattered Clouds
9:35 PM 71.6 °F - 71.6 °F 100% 30.03 in 10.0 mi North 3.5 mph - N/A   Scattered Clouds
9:55 PM 71.6 °F - 71.6 °F 100% 30.03 in 7.0 mi Calm Calm - N/A   Scattered Clouds
10:15 PM 71.6 °F - 69.8 °F 94% 30.04 in 10.0 mi Calm Calm - N/A   Scattered Clouds
10:35 PM 71.6 °F - 69.8 °F 94% 30.05 in 10.0 mi Calm Calm - N/A   Scattered Clouds
10:55 PM 71.6 °F - 69.8 °F 94% 30.05 in 7.0 mi Calm Calm - N/A   Scattered Clouds
11:15 PM 69.8 °F - 69.8 °F 100% 30.05 in 10.0 mi Calm Calm - N/A   Scattered Clouds
11:35 PM 69.8 °F - 69.8 °F 100% 30.04 in 7.0 mi Calm Calm - N/A   Mostly Cloudy
11:55 PM 69.8 °F - 69.8 °F 100% 30.04 in 4.0 mi Calm Calm - N/A   Scattered Clouds